loading
|

STARLINK-11259, 60721

Orbit data source: Space-Track

STARLINK-11259, 60721 is a payload satellite owned by SpaceX/Seattle (US) in LEO that was launched on Wed, 28 Aug 2024 UTC via an FALCON 9 launch vehicle from the Air Force Eastern Test Range (AFETR). Payloads include a variety of satellites, spacecraft, and rockets equipped with specific instruments for various scientific and technological missions. These include communications satellites like Starlink; space stations such as the ISS; scientific satellites like the Hubble; Earth observation satellites from companies like Planet Labs, Umbra, and HawkEye 360; GPS; miniature CubeSats for education and research; and military/defense satellites.

Loading next visibility...
Next conjunction unknown
Loading greatness...
STARLINK-11259 details
Identifier
60721, 2024-152B
Orbit
LEO
Last TLE update16 hours ago
Origin
Flag of USSpaceX/Seattle (US)
ManufacturerSpaceX/Seattle
MissionOperational spacecraft
Bus & MotorSTARLINK V2M, Unknown motor
Mass750 kg wet, ~700 kg dry
Launch date (UTC)
2024-08-28 (2 months ago)
Launch vehicle
FALCON 9
Launch site
Air Force Eastern Test Range (AFETR)
Object type
Payload
Rocket body
Debris
Shape & HBRUnknown
Radar Cross SectionLarge (>1 m²)

Expand to show TLE details & history

TLE from 16 hours ago
0 STARLINK-11259
1 60721U 24152B   24287.92904688  .00010240  00000-0  89307-4 0  9997
2 60721  53.1576 119.3128 0000891 129.0084 231.1014 15.69700884  8314
Epoch: 2024-10-13T22:17Z
Definitive object data (Epoch: 2024-10-13T22:17:49.65Z)
Latitude0.00004°
Longitude121.89246°
Altitude361.045 km
Speed7.694 km/s
True Right ascension07h 57m 15s
True Declination0° 00' 00"
Sunlit
Object was in daylight at TLE epoch
Predictive object data (real-time)
Latitude-39.39762°
Longitude-23.71964°
Altitude372.738 km
Speed7.686 km/s
Apparent Right ascension21h 42m 23s
Apparent Declination-39° 46' 02"
Sunlit
Object is in full shadow
Predictive observer data (real-time)
Local Sidereal Time09:07:48
Azimuth268.51° W
Elevation-83.363°
Doppler factor1
Orbital elements
Apogee360.614 km
Perigee359.414 km
Semi-major axis6,738.151 km
Eccentricity0.0000891
Inclination53.1576°
RAAN119.3128°
Arg. of periapsis129.0084°
True anomaly231.09345°
Mean anomaly231.1014°
Eccentric anomaly231.09743°
Mean motion3.92403 °/min
BSTAR0.000089307
Period91.74 mins
No data available

STARLINK-11259 Visibility forecast

Observer location: 39.9160978°, -105.1181434

Span
Click to sort rows by Start time (UTC) header in descending order
Start Az.
Max El. time (UTC)
Max El. Az.
Max El.
End time (UTC)
End Az.
5 mins2024-10-14 15:16:45.379Z205.034° SW2024-10-14 15:18:45.379Z150.928° SSE34.053°2024-10-14 15:21:45.379Z62.252° ENE